Overview Statistics Trail Chart Weather Telemetry Raw packets
 

This is the latest recevied weather packets stored in our database for station/object F8KHU-13. If no packets are shown the sender has not sent any weather packets the latest 10 day(s).

<< 4 5 6 7 8 9 10 >>
Time Temp. Humidity Pressure Rain* Wind** Luminosity Snow
1788615672 31.11° C 20% 1024.8 hPa 0 mm - 0 W/m² -
1788615668 31.11° C 20% 1024.8 hPa 0 mm - 0 W/m² -
1788615623 31.11° C 19% 1024.8 hPa 0 mm - 0 W/m² -
1788614748 28.33° C 23% 1024.7 hPa 0 mm - 0 W/m² -
1788613863 27.78° C 23% 1024.7 hPa 0 mm - 0 W/m² -
1788613843 27.78° C 22% 1024.7 hPa 0 mm - 0 W/m² -
1788613823 27.78° C 23% 1024.7 hPa 0 mm - 0 W/m² -
1788612963 26.11° C 24% 1024.7 hPa 0 mm - 0 W/m² -
1788612943 26.67° C 24% 1024.6 hPa 0 mm - 0 W/m² -
1788612924 26.67° C 24% 1024.6 hPa 0 mm - 0 W/m² -
1788612064 26.11° C 24% 1024.5 hPa 0 mm - 0 W/m² -
1788612044 26.11° C 24% 1024.5 hPa 0 mm - 0 W/m² -
1788612024 26.67° C 24% 1024.5 hPa 0 mm - 0 W/m² -
1788611164 27.78° C 23% 1024.3 hPa 0 mm - 0 W/m² -
1788611144 27.78° C 24% 1024.3 hPa 0 mm - 0 W/m² -
1788611123 27.78° C 23% 1024.4 hPa 0 mm - 0 W/m² -
1788610264 26.67° C 24% 1024.4 hPa 0 mm - 0 W/m² -
1788610244 26.67° C 23% 1024.4 hPa 0 mm - 0 W/m² -
1788610224 27.78° C 24% 1024.5 hPa 0 mm - 0 W/m² -
1788609364 25.56° C 25% 1024.4 hPa 0 mm - 0 W/m² -
1788609344 25° C 25% 1024.4 hPa 0 mm - 0 W/m² -
1788609335 25° C 25% 1024.4 hPa 0 mm - 0 W/m² -
1788608464 22.78° C 26% 1024.3 hPa 0 mm - 0 W/m² -
1788608444 21.67° C 27% 1024.3 hPa 0 mm - 0 W/m² -
1788608424 22.78° C 26% 1024.2 hPa 0 mm - 0 W/m² -

* Rain latest hour (hover to see other rain measurements)
** Current wind speed in m/s (hover to see current wind gust speed)